Erie, PA

12:08 AM EST on November 20, 2019 (GMT -0500)
Erie International

Weather History for KERI - September, 2019

Change the Weather History Date:

Wednesday, September 18, 2019

  Actual Average Record
Temperature  
Mean Temperature 68 °F 63 °F  
Max Temperature 77 °F 71 °F 88 °F (1955)
Min Temperature 59 °F 55 °F 40 °F (1990)
Degree Days  
Heating Degree Days 0 4  
Month to date heating degree days 8 37  
Since 1 July heating degree days 9 55  
Cooling Degree Days 3 2  
Month to date cooling degree days 75 55  
Year to date cooling degree days 765 613  
Growing Degree Days 18 (Base 50)    
Moisture  
Dew Point 50 °F    
Average Humidity 54    
Maximum Humidity 65    
Minimum Humidity 33    
Precipitation  
Precipitation 0.00 in 0.16 in 1.99 in (1945)
Month to date precipitation 3.12 2.59  
Year to date precipitation 29.44 28.42  
Snow  
Snow 0.00 in 0.00 in - ()
Month to date snowfall 0.0 0.0  
Since 1 July snowfall 0.0 0.0  
Since 1 September snowfall 0.0 0.0  
Snow Depth 0.00 in    
Sea Level Pressure  
Sea Level Pressure 30.22 in    
Wind  
Wind Speed 7 mph ()    
Max Wind Speed 17 mph    
Max Gust Speed 23 mph    
Visibility 10.0 miles    
Events      
T = Trace of Precipitation, MM = Missing Value Source: Averaged Metar Reports

Daily Weather History Graph

Daily Weather History Graph

Search for Another Location

Airport or City:

Astronomy

Sep. 18, 2019 Rise Set
Actual Time 7:03 AM EDT 7:25 PM EDT
Civil Twilight 6:35 AM EDT 7:53 PM EDT
Nautical Twilight 6:02 AM EDT 8:26 PM EDT
Astronomical Twilight 5:28 AM EDT 8:59 PM EDT
Moon 9:54 PM EDT (9/18) 11:09 AM EDT (9/18)
Length of Visible Light 13h 17m
Length of Day
12h 21m
Waning Gibbous, 82% of the Moon is Illuminated
Sep 18
Waning Gibbous
Sep 21
Last Quarter
Sep 28
New
Oct 5
First Quarter
Oct 13
Full

Hourly Weather History & Observations

Time (EDT) Temp. Dew Point Humidity Pressure Visibility Wind Dir Wind Speed Gust Speed Precip Events Conditions
12:51 AM 62.1 °F 50.0 °F 65% 30.19 in 10.0 mi East 3.5 mph - N/A   Clear
1:51 AM 62.1 °F 50.0 °F 65% 30.20 in 10.0 mi SE 8.1 mph - N/A   Clear
2:51 AM 62.1 °F 48.9 °F 62% 30.19 in 10.0 mi SE 8.1 mph - N/A   Clear
3:51 AM 61.0 °F 48.0 °F 62% 30.20 in 10.0 mi SE 4.6 mph - N/A   Clear
4:51 AM 60.1 °F 46.9 °F 62% 30.19 in 10.0 mi SSE 6.9 mph - N/A   Clear
5:51 AM 61.0 °F 44.1 °F 54% 30.20 in 10.0 mi SE 6.9 mph - N/A   Clear
6:51 AM 59.0 °F 43.0 °F 55% 30.23 in 10.0 mi ESE 5.8 mph - N/A   Clear
7:51 AM 60.1 °F 45.0 °F 57% 30.23 in 10.0 mi SE 6.9 mph - N/A   Clear
8:51 AM 63.0 °F 46.0 °F 54% 30.25 in 10.0 mi SSE 9.2 mph - N/A   Clear
9:51 AM 66.9 °F 45.0 °F 45% 30.25 in 10.0 mi SE 8.1 mph - N/A   Clear
10:51 AM 70.0 °F 46.0 °F 42% 30.24 in 10.0 mi SSE 8.1 mph - N/A   Clear
11:51 AM 73.9 °F 48.0 °F 40% 30.24 in 10.0 mi ESE 10.4 mph - N/A   Clear
12:51 PM 75.9 °F 45.0 °F 33% 30.24 in 10.0 mi ESE 13.8 mph - N/A   Clear
1:51 PM 75.9 °F 55.0 °F 48% 30.24 in 10.0 mi NE 6.9 mph - N/A   Clear
2:51 PM 75.9 °F 55.9 °F 50% 30.22 in 10.0 mi NNE 9.2 mph 16.1 mph N/A   Clear
3:51 PM 75.0 °F 57.0 °F 53% 30.21 in 10.0 mi NNE 13.8 mph - N/A   Clear
4:51 PM 75.0 °F 55.9 °F 51% 30.21 in 10.0 mi NNE 10.4 mph - N/A   Clear
5:51 PM 73.9 °F 57.0 °F 55% 30.21 in 10.0 mi NNE 10.4 mph - N/A   Clear
6:51 PM 72.0 °F 55.9 °F 57% 30.22 in 10.0 mi NE 9.2 mph - N/A   Clear
7:51 PM 68.0 °F 55.9 °F 65% 30.22 in 10.0 mi ENE 8.1 mph - N/A   Clear
8:51 PM 66.9 °F 54.0 °F 63% 30.22 in 10.0 mi East 6.9 mph - N/A   Clear
9:51 PM 66.0 °F 50.0 °F 56% 30.22 in 10.0 mi SE 6.9 mph - N/A   Clear
10:51 PM 64.9 °F 46.9 °F 52% 30.22 in 10.0 mi SE 8.1 mph - N/A   Clear
11:51 PM 64.0 °F 46.9 °F 54% 30.22 in 10.0 mi SE 10.4 mph - N/A   Clear